Weather History for Perth, WE

Change the Weather History Date:

Saturday, January 18, 2014

  Actual Average Record
Temperature  
Mean Temperature 78 °F -  
Max Temperature 100 °F 89 °F 100 °F (2014)
Min Temperature 57 °F 64 °F 53 °F (2000)
Cooling Degree Days 14    
Growing Degree Days 28 (Base 50)    
Moisture  
Dew Point 49 °F    
Average Humidity 36    
Maximum Humidity 88    
Minimum Humidity 6    
Precipitation  
Precipitation 0.00 in 0.02 in - ()
Sea Level Pressure  
Sea Level Pressure 29.85 in    
Wind  
Wind Speed 9 mph ()    
Max Wind Speed 21 mph    
Max Gust Speed -    
Visibility 18.6 miles    
Events      
Averages and records for this station are not official NWS values.
T = Trace of Precipitation, MM = Missing Value Source: Averaged Metar Reports

Daily Weather History Graph

Daily Weather History Graph

Search for Another Location

Airport:

Trip Planner

Search our weather history database for the weather conditions in past years. The results will help you decide how hot, cold, wet, or windy it might be!

Date:

Astronomy

Jan. 18, 2014 Rise Set
Actual Time 5:27 AM AWST 7:24 PM AWST
Civil Twilight 5:00 AM AWST 7:51 PM AWST
Nautical Twilight 4:27 AM AWST 8:25 PM AWST
Astronomical Twilight 3:51 AM AWST 9:00 PM AWST
Moon 8:25 PM AWST (1/18) 7:09 AM AWST (1/18)
Length of Visible Light 14h 51m
Length of Day
13h 56m
Waning Gibbous, 97% of the Moon is Illuminated
Jan 18
Waning Gibbous
Jan 24
Last Quarter
Jan 31
New
Feb 7
First Quarter
Feb 15
Full

Hourly Weather History & Observations

Time (AWST) Temp. Heat Index Dew Point Humidity Pressure Visibility Wind Dir Wind Speed Gust Speed Precip Events Conditions
12:00 AM 67 °F - 57 °F 63% 29.88 in 19 mi South 10.4 mph - -   Partly Cloudy
12:00 AM 68.0 °F - 57.2 °F 68% 29.86 in - South 10.4 mph - N/A   Clear
12:30 AM 66.2 °F - 57.2 °F 73% 29.86 in - South 8.1 mph - N/A   Clear
1:00 AM 62.6 °F - 57.2 °F 82% 29.86 in - South 6.9 mph - N/A   Clear
1:30 AM 60.8 °F - 55.4 °F 82% 29.86 in - SSE 5.8 mph - N/A   Clear
2:00 AM 58 °F - 55 °F 86% 29.87 in - SSW 3.5 mph - -  
2:00 AM 59.0 °F - 55.4 °F 88% 29.86 in - SSW 3.5 mph - N/A   Clear
2:30 AM 59.0 °F - 55.4 °F 88% 29.86 in - NNW 4.6 mph - N/A   Clear
3:00 AM 67 °F - 49 °F 41% 29.87 in 16 mi East 3.5 mph - -   Partly Cloudy
3:00 AM 68.0 °F - 48.2 °F 49% 29.86 in - East 3.5 mph - N/A   Clear
3:30 AM 69.8 °F - 48.2 °F 46% 29.86 in - East 8.1 mph - N/A   Clear
4:00 AM 71.6 °F - 48.2 °F 43% 29.86 in - East 11.5 mph - N/A   Clear
4:30 AM 69.8 °F - 50.0 °F 49% 29.86 in - ENE 8.1 mph - N/A   Clear
5:00 AM 69 °F - 50 °F 40% 29.87 in - East 9.2 mph - -  
5:00 AM 69.8 °F - 50.0 °F 49% 29.86 in - East 9.2 mph - N/A   Clear
5:30 AM 68.0 °F - 50.0 °F 52% 29.86 in - East 11.5 mph - N/A   Clear
6:00 AM 69 °F - 51 °F 41% 29.89 in 19 mi East 10.4 mph - -   Partly Cloudy
6:00 AM 68.0 °F - 50.0 °F 52% 29.89 in - East 10.4 mph - N/A   Clear
6:30 AM 69.8 °F - 50.0 °F 49% 29.89 in - ENE 10.4 mph - N/A   Clear
7:00 AM 71.6 °F - 50.0 °F 46% 29.89 in - East 11.5 mph - N/A   Clear
7:30 AM 73.4 °F - 50.0 °F 44% 29.89 in - ENE 17.3 mph - N/A   Clear
8:00 AM 75 °F - 51 °F 31% 29.91 in - ENE 13.8 mph - -  
8:00 AM 75.2 °F - 50.0 °F 41% 29.89 in - ENE 13.8 mph - N/A   Clear
8:30 AM 78.8 °F - 51.8 °F 39% 29.89 in - ENE 16.1 mph - N/A   Clear
9:00 AM 82 °F - 51 °F 23% 29.91 in 19 mi East 13.8 mph - -   Partly Cloudy
9:00 AM 82.4 °F - 50.0 °F 32% 29.89 in - East 13.8 mph - N/A   Clear
9:30 AM 84.2 °F - 50.0 °F 30% 29.89 in - East 13.8 mph - N/A   Clear
10:00 AM 87.8 °F - 50.0 °F 27% 29.89 in - ENE 11.5 mph - N/A   Clear
10:30 AM 89.6 °F - 50.0 °F 26% 29.89 in - East 8.1 mph - N/A   Clear
11:00 AM 92 °F - 48 °F 13% 29.88 in - East 8.1 mph - -  
11:00 AM 93.2 °F - 48.2 °F 21% 29.86 in - East 8.1 mph - N/A   Clear
11:30 AM 93.2 °F - 44.6 °F 19% 29.86 in - East 10.4 mph - N/A   Clear
12:00 PM 96 °F - 45 °F 10% 29.87 in 19 mi NE 10.4 mph - -   Partly Cloudy
12:00 PM 96.8 °F - 44.6 °F 17% 29.86 in - East 11.5 mph - N/A   Clear
12:30 PM 95.0 °F - 41.0 °F 15% 29.86 in - SE 9.2 mph - N/A   Clear
1:00 PM 98.6 °F - 41.0 °F 14% 29.86 in - SE 6.9 mph - N/A   Clear
1:30 PM 96.8 °F - 41.0 °F 15% 29.83 in - ENE 6.9 mph - N/A   Clear
2:00 PM 98 °F - 38 °F 6% 29.83 in - SE 11.5 mph - -  
2:00 PM 98.6 °F - 39.2 °F 13% 29.83 in - SE 11.5 mph - N/A   Clear
2:30 PM 100.4 °F - 35.6 °F 11% 29.80 in - ESE 12.7 mph - N/A   Clear
3:00 PM 98 °F - 47 °F 10% 29.81 in 19 mi WSW 15.0 mph - -   Partly Cloudy
3:00 PM 98.6 °F - 46.4 °F 17% 29.80 in - WSW 15.0 mph - N/A   Clear
3:30 PM 98.6 °F - 44.6 °F 16% 29.80 in - WSW 16.1 mph - N/A   Clear
4:00 PM 96.8 °F - 46.4 °F 18% 29.80 in - WSW 17.3 mph - N/A   Clear
4:30 PM 95.0 °F - 46.4 °F 19% 29.80 in - SW 20.7 mph - N/A   Clear
5:00 PM 95 °F - 47 °F 11% 29.80 in - WSW 17.3 mph - -  
5:00 PM 95.0 °F - 46.4 °F 19% 29.80 in - WSW 17.3 mph - N/A   Clear
5:30 PM 95.0 °F - 44.6 °F 18% 29.80 in - SSW 18.4 mph - N/A   Clear
6:00 PM 93 °F - 46 °F 12% 29.81 in 19 mi SSW 17.3 mph - -   Partly Cloudy
6:00 PM 93.2 °F - 46.4 °F 20% 29.80 in - SSW 17.3 mph - N/A   Clear
6:30 PM 91.4 °F - 48.2 °F 23% 29.80 in - SSW 15.0 mph - N/A   Clear
7:00 PM 89.6 °F - 48.2 °F 24% 29.83 in - SSW 11.5 mph - N/A   Clear
7:30 PM 86.0 °F - 50.0 °F 29% 29.83 in - SSW 12.7 mph - N/A   Clear
8:00 PM 84 °F - 54 °F 25% 29.85 in - SSW 10.4 mph - -  
8:00 PM 84.2 °F 82.8 °F 53.6 °F 35% 29.83 in - SSW 10.4 mph - N/A   Clear
8:30 PM 82.4 °F 81.4 °F 53.6 °F 37% 29.83 in - SSW 11.5 mph - N/A   Clear
9:00 PM 83 °F - 50 °F 21% 29.85 in 19 mi SSW 10.4 mph - -   Partly Cloudy
9:00 PM 82.4 °F - 50.0 °F 32% 29.83 in - SSW 10.4 mph - N/A   Clear
9:30 PM 82.4 °F - 50.0 °F 32% 29.83 in - South 9.2 mph - N/A   Clear
10:00 PM 78.8 °F - 51.8 °F 39% 29.83 in - South 9.2 mph - N/A   Clear
10:30 PM 77.0 °F - 51.8 °F 41% 29.83 in - SSW 8.1 mph - N/A   Clear
11:00 PM 70 °F - 52 °F 42% 29.84 in - South 8.1 mph - -  
11:00 PM 69.8 °F - 51.8 °F 53% 29.83 in - South 8.1 mph - N/A   Clear
11:30 PM 68.0 °F - 51.8 °F 56% 29.83 in - South 5.8 mph - N/A   Clear